Hourly Weather Roundup
Issued by NWS Central Illinois

Home | Current Version | Previous Version | Text Only | Print | Product List | Glossary On
Versions: 1 2 3 4 5 6 7 8 9 10 11 12 13 14 15 16 17 18 19 20 21 22 23 24 25 26 27 28 29 30 31 32 33 34 35 36 37 38 39 40 41 42 43 44 45 46 47 48 49 50
000
NZUS43 KILX 281910
HWRILX

AREA WEATHER ROUNDUP
NATIONAL WEATHER SERVICE, LINCOLN IL
200 PM CDT TUE JUL 28 2015


CITY           SKY/WX    TMP DP  RH WIND       PRES   REMARKS
BLOOMINGTON    CLOUDY    89  76  65 VRB5      30.00S HX 100
CHAMPAIGN      MOSUNNY   90  75  61 VRB3      29.98F HX 100
DANVILLE       MOSUNNY   87  74  65 NW5       29.95F HAZE    HX  94
DECATUR        PTSUNNY   90  76  63 S7        29.96F HX 101
EFFINGHAM      MOSUNNY   91  69  48 SW3       29.98F HX  96
FLORA          MOSUNNY   91  74  58 S3        29.97S HX 100
GALESBURG      PTSUNNY   86  78  75 E5        29.94F HX  98
JACKSONVILLE   SUNNY     92  80  69 N3        29.95F HX 110
LACON          CLOUDY    73  70  91 S3        29.97F
LAWRENCEVILLE  MOSUNNY   90  77  65 S5        29.96F HX 103
LITCHFIELD     MOSUNNY   89  76  66 CALM      29.96F HX 100
$$


CITY           SKY/WX    TMP DP  RH WIND       PRES   REMARKS
LINCOLN        CLOUDY    92  76  58 S5        29.94F HX 104
MACOMB         MOSUNNY   90  77  66 CALM      29.97F HX 102
MATTOON        SUNNY     88  73  61 VRB3      29.97F HX  95
MT CARMEL AP   MOSUNNY   91  72  52 CALM      29.96F HX  98
OLNEY-NOBLE AP PTSUNNY   88  77  70 CALM      29.97F HX 100
PARIS          MOSUNNY   90  76  62 SW5       29.98S HX 101
PEORIA         CLOUDY    80  71  74 NE14G22   29.97F HX  84
PONTIAC        CLOUDY    85  76  74 SW3       29.98F HX  94
RANTOUL        PTSUNNY   90  75  62 W5        29.98S HX 100
ROBINSON       MOSUNNY   88  77  69 CALM      29.97S HX  99
SPRINGFIELD    PTSUNNY   93  77  59 W5        29.96S HX 107
TAYLORVILLE    MOSUNNY   88  79  74 CALM      29.97S HX 102
$$

...REGIONAL REPORTS...


CITY           SKY/WX    TMP DP  RH WIND       PRES   REMARKS
CHICAGO O`HARE PTSUNNY   89  70  53 SW8       29.96F HX  94
KANKAKEE       MOSUNNY   90  75  61 SW6       29.98F HX 101
MOLINE         CLOUDY    79  71  76 N6        29.93F HX  82
MOUNT STERLING NOT AVBL
MOUNT VERNON   PTSUNNY   93  77  59 S3        29.96F HX 107
PITTSFIELD     MOSUNNY   92  79  65 CALM      29.97S HX 109
QUINCY         SUNNY     92  77  61 SW3       29.96S HX 105
ROCKFORD       CLOUDY    85  73  67 SW8       29.98F HX  91
$$


CITY           SKY/WX    TMP DP  RH WIND       PRES   REMARKS
BURLINGTON     PTSUNNY   90  79  70 CALM      29.93F HX 106
CEDAR RAPIDS   CLOUDY    72  72 100 SE8       29.87F
DES MOINES     CLOUDY    85  76  74 SE16      29.87R HX  94
KIRKSVILLE     MOSUNNY   93  76  57 S10       29.94F HX 105
OTTUMWA        CLOUDY    84  78  82 E10       29.89F HX  95
ST LOUIS       MOSUNNY   99  73  43 VRB3      29.95F HX 109
$$


CITY           SKY/WX    TMP DP  RH WIND       PRES   REMARKS
TERRE HAUTE    PTSUNNY   91  74  57 SW6       29.97S HX 100
EVANSVILLE     MOSUNNY   91  75  59 W7        29.96F HX 101
INDIANAPOLIS   MOSUNNY   91  71  51 VRB3      29.97F HX  97
LAFAYETTE      SUNNY     88  73  61 VRB3      29.97F HX  95
MADISON        CLOUDY    84  70  62 S16       29.90F HX  88
MILWAUKEE      PTSUNNY   84  65  52 SE15      29.97F HX  86
$$




USA.gov is the U.S. government's official web portal to all federal, state and local government web resources and services.